This is the latest recevied weather packets stored in our database for station/object WC4PEM-10. If no packets are shown the sender has not sent any weather packets the latest 1 day(s).
| Time | Temp. | Humidity | Pressure | Rain* | Wind** | Luminosity | Snow |
|---|---|---|---|---|---|---|---|
| 1778011356 | 30.56° C | 52% | 1013.8 hPa | 0 mm | 5.36 m/s, 55° | - | - |
| 1778011288 | 30.56° C | 52% | 1013.8 hPa | 0 mm | 5.36 m/s, 55° | - | - |
| 1778010988 | 30.56° C | 50% | 1013.8 hPa | 0 mm | 4.92 m/s, 39° | - | - |
| 1778010688 | 30.56° C | 50% | 1013.9 hPa | 0 mm | 3.58 m/s, 59° | - | - |
| 1778010478 | 30.56° C | 49% | 1013.9 hPa | 0 mm | 3.58 m/s, 57° | - | - |
| 1778010388 | 30.56° C | 49% | 1013.9 hPa | 0 mm | 3.58 m/s, 57° | - | - |
| 1778010139 | 31.11° C | 48% | 1013.9 hPa | 0 mm | 3.58 m/s, 63° | - | - |
| 1778010088 | 31.11° C | 48% | 1013.9 hPa | 0 mm | 3.58 m/s, 63° | - | - |
| 1778009882 | 31.11° C | 48% | 1014 hPa | 0 mm | 3.58 m/s, 92° | - | - |
| 1778009788 | 31.11° C | 48% | 1014 hPa | 0 mm | 3.58 m/s, 92° | - | - |
| 1778009548 | 31.11° C | 47% | 1014.1 hPa | 0 mm | 3.58 m/s, 42° | - | - |
| 1778009499 | 31.11° C | 49% | 1014.1 hPa | 0 mm | 2.68 m/s, 31° | - | - |
| 1778009488 | 31.11° C | 47% | 1014.1 hPa | 0 mm | 3.58 m/s, 42° | - | - |
| 1778009261 | 31.11° C | 49% | 1014.1 hPa | 0 mm | 2.68 m/s, 31° | - | - |
| 1778009188 | 31.11° C | 49% | 1014.1 hPa | 0 mm | 2.68 m/s, 31° | - | - |
| 1778008937 | 30.56° C | 48% | 1014.3 hPa | 0 mm | 2.24 m/s, 337° | - | - |
| 1778008888 | 30.56° C | 48% | 1014.3 hPa | 0 mm | 2.24 m/s, 337° | - | - |
| 1778008638 | 30.56° C | 47% | 1014.3 hPa | 0 mm | 2.24 m/s, 48° | - | - |
| 1778008588 | 30.56° C | 47% | 1014.3 hPa | 0 mm | 2.24 m/s, 48° | - | - |
| 1778008359 | 30.56° C | 49% | 1014.4 hPa | 0 mm | 3.58 m/s, 42° | - | - |
| 1778008288 | 30.56° C | 49% | 1014.4 hPa | 0 mm | 3.58 m/s, 42° | - | - |
| 1778007988 | 30° C | 49% | 1014.3 hPa | 0 mm | 4.92 m/s, 78° | - | - |
| 1778007688 | 30.56° C | 51% | 1014.5 hPa | 0 mm | 4.92 m/s, 51° | - | - |
| 1778007522 | 30.56° C | 51% | 1014.5 hPa | 0 mm | 3.13 m/s, 59° | - | - |
| 1778007388 | 30.56° C | 51% | 1014.5 hPa | 0 mm | 3.13 m/s, 59° | - | - |
* Rain latest hour (hover to see other rain measurements)
** Current wind speed in m/s (hover to see current wind gust speed)